Location: Dötzum
(52.0808°N, 9.8063°E)
Time: 06:26:49
(UTC+00:00)

USA 32 - Pass Details

Date: 27 May 2022
Orbit: 775 x 784 km, 85.0° (Epoch: 25 June)

Event Time Altitude Azimuth Distance (km) Brightness Sun altitude
Exits shadow 00:02:07 23° 167° (SSE) 1,610 5.1 -16.0°
Maximum altitude 00:05:21 64° 92° (E) 868 4.3 -15.9°
Drops below altitude 10° 00:10:33 10° 12° (NNE) 2,350 7.9 -15.8°
Sets 00:12:56 0° 9° (N) 3,282 9.1 -15.7°
